,,PA_Meas_PMT16A,,PR_Meas_QMR101_102,,RH_Meas_QMH101,,SR_Meas_QMS101,,TA_Meas_QMH101,,GenWind,,GenWind,
time,status,PA,status,PR,status,RH,status,SR,status,TA,status,DirAvg,status,SpdAvg,
2010-06-24, 00:00:04,VALID,918.372,VALID,0,VALID,92.3958,VALID,0,VALID,20.9706,VALID,148,VALID,0.7125,
2010-06-24, 00:01:04,VALID,918.38,VALID,0,VALID,92.3882,VALID,0,VALID,20.9105,VALID,148,VALID,0.946484,
2010-06-24, 00:02:04,VALID,918.383,VALID,0,VALID,92.3577,VALID,0,VALID,20.891,VALID,148,VALID,0.617188,
2010-06-24, 00:03:04,VALID,918.378,VALID,0,VALID,92.3806,VALID,0,VALID,20.9105,VALID,148,VALID,0.908203,
2010-06-24, 00:04:04,VALID,918.388,VALID,0,VALID,92.4873,VALID,0,VALID,20.8519,VALID,148,VALID,0.735156,
2010-06-24, 00:05:04,VALID,918.398,VALID,0,VALID,92.5788,VALID,0,VALID,20.8519,VALID,148,VALID,0.691016,
2010-06-24, 00:06:04,VALID,918.402,VALID,0,VALID,92.4873,VALID,0.107441,VALID,20.8324,VALID,118,VALID,0.937109,
2010-06-24, 00:07:04,VALID,918.424,VALID,0,VALID,92.6474,VALID,0,VALID,20.8129,VALID,118,VALID,0.839844,
2010-06-24, 00:08:04,VALID,918.382,VALID,0,VALID,92.594,VALID,0,VALID,20.8129,VALID,118,VALID,0.921484,
2010-06-24, 00:09:04,VALID,918.38,VALID,0,VALID,92.5483,VALID,0,VALID,20.8129,VALID,119,VALID,1.04336,
2010-06-24, 00:10:04,VALID,918.371,VALID,0,VALID,92.5178,VALID,0.107441,VALID,20.8324,VALID,129,VALID,1.01211,
2010-06-24, 00:11:04,VALID,918.335,VALID,0,VALID,92.4797,VALID,0.107441,VALID,20.8324,VALID,129,VALID,1.07148,
2010-06-24, 00:12:04,VALID,918.284,VALID,0,VALID,92.5102,VALID,0,VALID,20.8129,VALID,129,VALID,0.920313,
2010-06-24, 00:13:04,VALID,918.286,VALID,0,VALID,92.6169,VALID,0.107441,VALID,20.8129,VALID,142,VALID,1.24375,
2010-06-24, 00:14:04,VALID,918.214,VALID,0,VALID,92.6169,VALID,0.107441,VALID,20.7934,VALID,131,VALID,1.40742,
2010-06-24, 00:15:04,VALID,918.226,VALID,0,VALID,92.6779,VALID,0,VALID,20.7739,VALID,131,VALID,0.766406,
2010-06-24, 00:16:04,VALID,918.21,VALID,0,VALID,92.6474,VALID,0,VALID,20.7739,VALID,132,VALID,1.26563,
2010-06-24, 00:17:04,VALID,918.162,VALID,0,VALID,92.6397,VALID,0,VALID,20.7739,VALID,132,VALID,1.11094,
2010-06-24, 00:18:04,VALID,918.152,VALID,0,VALID,92.594,VALID,0,VALID,20.795,VALID,126,VALID,1.51055,
2010-06-24, 00:19:04,VALID,918.087,VALID,0,VALID,92.4797,VALID,0,VALID,20.795,VALID,142,VALID,1.39961,
2010-06-24, 00:20:04,VALID,918.066,VALID,0,VALID,92.5254,VALID,0,VALID,20.7528,VALID,114,VALID,1.35039,
2010-06-24, 00:21:04,VALID,918.096,VALID,0,VALID,92.5559,VALID,0,VALID,20.8145,VALID,117,VALID,1.26719,
2010-06-24, 00:22:04,VALID,918.071,VALID,0,VALID,92.5559,VALID,0,VALID,20.8145,VALID,128,VALID,1.63125,
2010-06-24, 00:23:04,VALID,918.035,VALID,0,VALID,92.5711,VALID,0,VALID,20.795,VALID,131,VALID,1.15859,
2010-06-24, 00:24:04,VALID,918.052,VALID,0,VALID,92.5559,VALID,0,VALID,20.8145,VALID,132,VALID,1.09375,
2010-06-24, 00:25:04,VALID,918.01,VALID,0,VALID,92.5559,VALID,0,VALID,20.795,VALID,141,VALID,1.53633,
2010-06-24, 00:26:04,VALID,918.035,VALID,0,VALID,92.6321,VALID,0,VALID,20.795,VALID,111,VALID,0.602734,
2010-06-24, 00:27:04,VALID,917.99,VALID,0,VALID,92.5635,VALID,0,VALID,20.795,VALID,142,VALID,0.999609,
2010-06-24, 00:28:04,VALID,917.997,VALID,0,VALID,92.4873,VALID,0,VALID,20.8145,VALID,137,VALID,0.713672,
2010-06-24, 00:29:04,VALID,917.986,VALID,0,VALID,92.2814,VALID,0,VALID,20.834,VALID,122,VALID,1.8668,
2010-06-24, 00:30:04,VALID,917.982,VALID,0,VALID,92.2586,VALID,0,VALID,20.8519,VALID,112,VALID,1.23828,
2010-06-24, 00:31:04,VALID,917.977,VALID,0,VALID,92.3119,VALID,0,VALID,20.8519,VALID,112,VALID,0.941797,
2010-06-24, 00:32:04,VALID,917.974,VALID,0,VALID,92.3043,VALID,0,VALID,20.8309,VALID,138,VALID,1.30898,
2010-06-24, 00:33:04,VALID,917.947,VALID,0,VALID,92.3348,VALID,0.107441,VALID,20.8519,VALID,139,VALID,0.760547,
2010-06-24, 00:34:04,VALID,917.939,VALID,0,VALID,92.2662,VALID,0,VALID,20.8519,VALID,146,VALID,0.871094,
2010-06-24, 00:35:04,VALID,917.91,VALID,0,VALID,92.2128,VALID,0,VALID,20.8714,VALID,146,VALID,1.18008,
2010-06-24, 00:36:04,VALID,917.92,VALID,0,VALID,92.2967,VALID,0.107441,VALID,20.8699,VALID,147,VALID,0.498437,
2010-06-24, 00:37:04,VALID,917.883,VALID,0,VALID,92.2128,VALID,0.107441,VALID,20.8714,VALID,147,VALID,1.08438,
2010-06-24, 00:38:04,VALID,917.862,VALID,0,VALID,92.1671,VALID,0,VALID,20.8714,VALID,147,VALID,1.45664,
2010-06-24, 00:39:04,VALID,917.851,VALID,0,VALID,92.2052,VALID,0,VALID,20.8519,VALID,147,VALID,1.29375,
2010-06-24, 00:40:04,VALID,917.825,VALID,0,VALID,92.3196,VALID,0,VALID,20.8324,VALID,147,VALID,1.21602,
2010-06-24, 00:41:04,VALID,917.804,VALID,0,VALID,92.4263,VALID,0,VALID,20.8324,VALID,136,VALID,0.983984,
2010-06-24, 00:42:04,VALID,917.824,VALID,0,VALID,92.411,VALID,0,VALID,20.8324,VALID,116,VALID,1.34766,
2010-06-24, 00:43:04,VALID,917.791,VALID,0,VALID,92.472,VALID,0,VALID,20.8324,VALID,116,VALID,0.763281,
2010-06-24, 00:44:04,VALID,917.799,VALID,0,VALID,92.5178,VALID,0,VALID,20.8324,VALID,116,VALID,0.665625,
2010-06-24, 00:45:04,VALID,917.783,VALID,0,VALID,92.5025,VALID,0,VALID,20.8324,VALID,116,VALID,0.483984,
2010-06-24, 00:46:04,VALID,917.807,VALID,0,VALID,92.2891,VALID,0,VALID,20.8324,VALID,135,VALID,1.03789,
2010-06-24, 00:47:04,VALID,917.763,VALID,0,VALID,92.3882,VALID,0,VALID,20.8324,VALID,135,VALID,0.305078,
2010-06-24, 00:48:04,VALID,917.796,VALID,0,VALID,92.3348,VALID,0,VALID,20.8324,VALID,135,VALID,0.538281,
2010-06-24, 00:49:04,VALID,917.802,VALID,0,VALID,92.4034,VALID,0,VALID,20.8129,VALID,135,VALID,0.216016,
2010-06-24, 00:50:04,VALID,917.785,VALID,0,VALID,92.3882,VALID,0,VALID,20.8129,VALID,135,VALID,0,
2010-06-24, 00:51:04,VALID,917.753,VALID,0,VALID,92.3348,VALID,0,VALID,20.8324,VALID,135,VALID,0,
2010-06-24, 00:52:04,VALID,917.746,VALID,0,VALID,92.1595,VALID,0,VALID,20.8519,VALID,135,VALID,0.222656,
2010-06-24, 00:53:04,VALID,917.747,VALID,0,VALID,92.1442,VALID,0,VALID,20.8714,VALID,135,VALID,0.222266,
2010-06-24, 00:54:04,VALID,917.744,VALID,0,VALID,92.0985,VALID,0.107441,VALID,20.8504,VALID,135,VALID,0.245703,
2010-06-24, 00:55:04,VALID,917.732,VALID,0,VALID,91.9308,VALID,0,VALID,20.891,VALID,135,VALID,0.404297,
2010-06-24, 00:56:04,VALID,917.716,VALID,0,VALID,91.7631,VALID,0,VALID,20.8504,VALID,135,VALID,0.375,
2010-06-24, 00:57:04,VALID,917.71,VALID,0,VALID,91.7783,VALID,0,VALID,20.891,VALID,135,VALID,0.358594,
2010-06-24, 00:58:04,VALID,917.69,VALID,0,VALID,91.8164,VALID,0,VALID,20.891,VALID,135,VALID,0.248828,
2010-06-24, 00:59:04,VALID,917.677,VALID,0,VALID,91.8622,VALID,0,VALID,20.8714,VALID,135,VALID,0.438281,
2010-06-24, 01:00:04,VALID,917.693,VALID,0,VALID,91.9384,VALID,0.107441,VALID,20.912,VALID,135,VALID,0.325,
2010-06-24, 01:01:04,VALID,917.672,VALID,0,VALID,92.0756,VALID,0,VALID,20.8714,VALID,135,VALID,0.333984,
2010-06-24, 01:02:04,VALID,917.664,VALID,0,VALID,92.1137,VALID,0,VALID,20.8519,VALID,135,VALID,0.39375,
2010-06-24, 01:03:04,VALID,917.677,VALID,0,VALID,92.3958,VALID,0,VALID,20.8324,VALID,135,VALID,0.447266,
2010-06-24, 01:04:04,VALID,917.674,VALID,0,VALID,92.8608,VALID,0,VALID,20.8129,VALID,135,VALID,0.591406,
2010-06-24, 01:05:04,VALID,917.658,VALID,0,VALID,93.0667,VALID,0,VALID,20.7544,VALID,135,VALID,0.678906,
2010-06-24, 01:06:04,VALID,917.646,VALID,0,VALID,93.2954,VALID,0,VALID,20.6959,VALID,135,VALID,0.464453,
2010-06-24, 01:07:04,VALID,917.601,VALID,0,VALID,93.3411,VALID,0,VALID,20.6569,VALID,135,VALID,0.5875,
2010-06-24, 01:08:04,VALID,917.63,VALID,0,VALID,93.3487,VALID,0.107441,VALID,20.6179,VALID,135,VALID,0.593359,
2010-06-24, 01:09:04,VALID,917.627,VALID,0,VALID,93.0743,VALID,0,VALID,20.6179,VALID,135,VALID,0.672266,
2010-06-24, 01:10:04,VALID,917.641,VALID,0,VALID,92.8837,VALID,0,VALID,20.6374,VALID,135,VALID,0.589844,
2010-06-24, 01:11:04,VALID,917.602,VALID,0,VALID,93.0285,VALID,0,VALID,20.6764,VALID,135,VALID,0.605078,
2010-06-24, 01:12:04,VALID,917.601,VALID,0,VALID,93.1276,VALID,0.107441,VALID,20.6374,VALID,135,VALID,0.708203,
2010-06-24, 01:13:04,VALID,917.601,VALID,0,VALID,93.2115,VALID,0,VALID,20.6179,VALID,135,VALID,0.769922,
2010-06-24, 01:14:04,VALID,917.592,VALID,0,VALID,93.2954,VALID,0,VALID,20.5789,VALID,135,VALID,1.08398,
2010-06-24, 01:15:04,VALID,917.573,VALID,0,VALID,93.5012,VALID,0,VALID,20.5594,VALID,135,VALID,0.88125,
2010-06-24, 01:16:04,VALID,917.583,VALID,0,VALID,93.6842,VALID,0,VALID,20.5399,VALID,135,VALID,0.766016,
2010-06-24, 01:17:04,VALID,917.596,VALID,0,VALID,93.8747,VALID,0,VALID,20.5204,VALID,135,VALID,0.705078,
2010-06-24, 01:18:04,VALID,917.58,VALID,0,VALID,94.073,VALID,0,VALID,20.4813,VALID,135,VALID,0.734766,
2010-06-24, 01:19:04,VALID,917.57,VALID,0,VALID,94.2102,VALID,0,VALID,20.4813,VALID,135,VALID,0.557813,
2010-06-24, 01:20:04,VALID,917.534,VALID,0,VALID,94.355,VALID,0,VALID,20.4618,VALID,135,VALID,0.772266,
2010-06-24, 01:21:04,VALID,917.559,VALID,0,VALID,94.5075,VALID,0,VALID,20.4423,VALID,135,VALID,0.689453,
2010-06-24, 01:22:04,VALID,917.552,VALID,0,VALID,94.5761,VALID,0,VALID,20.4423,VALID,135,VALID,0.590625,
2010-06-24, 01:23:04,VALID,917.547,VALID,0,VALID,94.5913,VALID,0,VALID,20.4423,VALID,135,VALID,0.739453,
2010-06-24, 01:24:04,VALID,917.529,VALID,0,VALID,94.5837,VALID,0,VALID,20.4618,VALID,135,VALID,0.660156,
2010-06-24, 01:25:04,VALID,917.503,VALID,0,VALID,94.5227,VALID,0,VALID,20.4813,VALID,135,VALID,0.587891,
2010-06-24, 01:26:04,VALID,917.484,VALID,0,VALID,94.5227,VALID,0,VALID,20.5204,VALID,135,VALID,0.538281,
2010-06-24, 01:27:04,VALID,917.407,VALID,0,VALID,94.5075,VALID,0,VALID,20.5204,VALID,135,VALID,0.576172,
2010-06-24, 01:28:04,VALID,917.405,VALID,0,VALID,94.3474,VALID,0,VALID,20.5204,VALID,135,VALID,0.745313,
2010-06-24, 01:29:04,VALID,917.359,VALID,0,VALID,94.2712,VALID,0,VALID,20.5204,VALID,135,VALID,0.886719,
2010-06-24, 01:30:04,VALID,917.335,VALID,0,VALID,94.2864,VALID,0,VALID,20.5204,VALID,136,VALID,0.552734,
2010-06-24, 01:31:04,VALID,917.304,VALID,0,VALID,94.1721,VALID,0,VALID,20.5204,VALID,148,VALID,0.908203,
2010-06-24, 01:32:04,VALID,917.263,VALID,0,VALID,94.1339,VALID,0,VALID,20.5204,VALID,148,VALID,0.897266,
2010-06-24, 01:33:04,VALID,917.259,VALID,0,VALID,94.1034,VALID,0,VALID,20.5594,VALID,148,VALID,0.751953,
2010-06-24, 01:34:04,VALID,917.222,VALID,0,VALID,94.0806,VALID,0,VALID,20.5594,VALID,148,VALID,0.8625,
2010-06-24, 01:35:04,VALID,917.211,VALID,0,VALID,94.012,VALID,0.107441,VALID,20.5399,VALID,148,VALID,0.928906,
2010-06-24, 01:36:04,VALID,917.195,VALID,0,VALID,94.0272,VALID,0,VALID,20.5399,VALID,148,VALID,0.803906,
2010-06-24, 01:37:04,VALID,917.156,VALID,0,VALID,93.9205,VALID,0,VALID,20.5399,VALID,155,VALID,0.537109,
2010-06-24, 01:38:04,VALID,917.168,VALID,0,VALID,93.9434,VALID,0,VALID,20.5594,VALID,155,VALID,0.741016,
2010-06-24, 01:39:04,VALID,917.154,VALID,0,VALID,93.9281,VALID,0,VALID,20.5594,VALID,155,VALID,0.126172,
2010-06-24, 01:40:04,VALID,917.134,VALID,0,VALID,93.7451,VALID,0,VALID,20.5984,VALID,155,VALID,0.630859,
2010-06-24, 01:41:04,VALID,917.117,VALID,0,VALID,93.5393,VALID,0,VALID,20.5789,VALID,155,VALID,1.17578,
2010-06-24, 01:42:04,VALID,917.1,VALID,0,VALID,93.3564,VALID,0,VALID,20.5984,VALID,155,VALID,0.547656,
2010-06-24, 01:43:04,VALID,917.077,VALID,0,VALID,93.2039,VALID,0,VALID,20.5789,VALID,155,VALID,1.21172,
2010-06-24, 01:44:04,VALID,917.06,VALID,0,VALID,93.0972,VALID,0,VALID,20.5984,VALID,155,VALID,0.898828,
2010-06-24, 01:45:04,VALID,917.045,VALID,0,VALID,92.9981,VALID,0,VALID,20.5984,VALID,155,VALID,0.874219,
2010-06-24, 01:46:04,VALID,917.031,VALID,0,VALID,92.8761,VALID,0,VALID,20.5984,VALID,155,VALID,0.724609,
2010-06-24, 01:47:04,VALID,916.998,VALID,0,VALID,92.8608,VALID,0,VALID,20.5984,VALID,155,VALID,0.721484,
2010-06-24, 01:48:04,VALID,916.975,VALID,0,VALID,92.7389,VALID,0,VALID,20.5984,VALID,155,VALID,0.977734,
2010-06-24, 01:49:04,VALID,916.972,VALID,0,VALID,92.7389,VALID,0,VALID,20.5984,VALID,155,VALID,0.905859,
2010-06-24, 01:50:04,VALID,916.942,VALID,0,VALID,92.7007,VALID,0,VALID,20.5999,VALID,155,VALID,0.969141,
2010-06-24, 01:51:04,VALID,916.919,VALID,0,VALID,92.6169,VALID,0,VALID,20.5984,VALID,155,VALID,0.795703,
2010-06-24, 01:52:04,VALID,916.931,VALID,0,VALID,92.7998,VALID,0,VALID,20.5984,VALID,155,VALID,0.601953,
2010-06-24, 01:53:04,VALID,916.911,VALID,0,VALID,92.8913,VALID,0,VALID,20.5789,VALID,154,VALID,0.822656,
2010-06-24, 01:54:04,VALID,916.903,VALID,0,VALID,92.9218,VALID,0,VALID,20.5399,VALID,154,VALID,0.984766,
2010-06-24, 01:55:04,VALID,916.868,VALID,0,VALID,93.0057,VALID,0,VALID,20.5219,VALID,154,VALID,0.815625,
2010-06-24, 01:56:04,VALID,916.865,VALID,0,VALID,92.9981,VALID,0,VALID,20.5009,VALID,154,VALID,1.29141,
2010-06-24, 01:57:04,VALID,916.834,VALID,0,VALID,93.0285,VALID,0.107441,VALID,20.4813,VALID,154,VALID,1.24102,
2010-06-24, 01:58:04,VALID,916.83,VALID,0,VALID,92.9294,VALID,0,VALID,20.5024,VALID,154,VALID,0.982813,
2010-06-24, 01:59:04,VALID,916.793,VALID,0,VALID,92.8837,VALID,0,VALID,20.5009,VALID,154,VALID,0.548047,
2010-06-24, 02:00:04,VALID,916.784,VALID,0,VALID,92.5406,VALID,0,VALID,20.5204,VALID,139,VALID,1.10195,
2010-06-24, 02:01:04,VALID,916.781,VALID,0,VALID,92.3272,VALID,0,VALID,20.5594,VALID,140,VALID,0.957031,
2010-06-24, 02:02:04,VALID,916.78,VALID,0,VALID,92.0832,VALID,0,VALID,20.5789,VALID,140,VALID,1.12812,
2010-06-24, 02:03:04,VALID,916.766,VALID,0,VALID,91.7631,VALID,0,VALID,20.5984,VALID,140,VALID,0.836328,
2010-06-24, 02:04:04,VALID,916.767,VALID,0,VALID,91.5877,VALID,0,VALID,20.6179,VALID,140,VALID,0.803516,
2010-06-24, 02:05:04,VALID,916.75,VALID,0,VALID,91.603,VALID,0,VALID,20.6374,VALID,140,VALID,0.566406,
2010-06-24, 02:06:04,VALID,916.768,VALID,0,VALID,91.5648,VALID,0,VALID,20.6374,VALID,140,VALID,0.719922,
2010-06-24, 02:07:04,VALID,916.749,VALID,0,VALID,91.7326,VALID,0,VALID,20.6569,VALID,140,VALID,0.421094,
2010-06-24, 02:08:04,VALID,916.701,VALID,0,VALID,91.9613,VALID,0,VALID,20.6374,VALID,140,VALID,0.463672,
2010-06-24, 02:09:04,VALID,916.677,VALID,0,VALID,92.2738,VALID,0,VALID,20.6374,VALID,140,VALID,0,
2010-06-24, 02:10:04,VALID,916.677,VALID,0,VALID,92.3958,VALID,0,VALID,20.6569,VALID,140,VALID,0.0785156,
2010-06-24, 02:11:04,VALID,916.67,VALID,0,VALID,92.5254,VALID,0,VALID,20.6569,VALID,140,VALID,0.161719,
2010-06-24, 02:12:04,VALID,916.663,VALID,0,VALID,92.7389,VALID,0,VALID,20.6374,VALID,140,VALID,0.257813,
2010-06-24, 02:13:04,VALID,916.688,VALID,0,VALID,92.8685,VALID,0,VALID,20.6179,VALID,140,VALID,0.491406,
2010-06-24, 02:14:04,VALID,916.704,VALID,0,VALID,93.1124,VALID,0,VALID,20.5789,VALID,140,VALID,0.700781,
2010-06-24, 02:15:04,VALID,916.709,VALID,0,VALID,93.2268,VALID,0,VALID,20.5399,VALID,140,VALID,0.789453,
2010-06-24, 02:16:04,VALID,916.723,VALID,0,VALID,93.3792,VALID,0,VALID,20.5009,VALID,140,VALID,0.946094,
2010-06-24, 02:17:04,VALID,916.749,VALID,0,VALID,93.6003,VALID,0.107441,VALID,20.4813,VALID,140,VALID,0.7625,
2010-06-24, 02:18:04,VALID,916.732,VALID,0,VALID,93.6079,VALID,0,VALID,20.4618,VALID,140,VALID,1.0168,
2010-06-24, 02:19:04,VALID,916.735,VALID,0,VALID,93.5469,VALID,0,VALID,20.4439,VALID,140,VALID,0.767187,
2010-06-24, 02:20:04,VALID,916.712,VALID,0,VALID,93.6003,VALID,0,VALID,20.4033,VALID,140,VALID,0.698438,
2010-06-24, 02:21:04,VALID,916.677,VALID,0,VALID,93.7223,VALID,0,VALID,20.3643,VALID,140,VALID,0.577734,
2010-06-24, 02:22:04,VALID,916.663,VALID,0,VALID,93.8138,VALID,0,VALID,20.3448,VALID,140,VALID,0.741406,
2010-06-24, 02:23:04,VALID,916.62,VALID,0,VALID,93.9129,VALID,0,VALID,20.3448,VALID,140,VALID,0.34375,
2010-06-24, 02:24:04,VALID,916.619,VALID,0,VALID,93.9815,VALID,0,VALID,20.3253,VALID,140,VALID,0.306641,
2010-06-24, 02:25:04,VALID,916.559,VALID,0,VALID,94.0653,VALID,0,VALID,20.3058,VALID,140,VALID,0.641797,
2010-06-24, 02:26:04,VALID,916.535,VALID,0,VALID,94.1721,VALID,0,VALID,20.3253,VALID,140,VALID,0.812109,
2010-06-24, 02:27:04,VALID,916.51,VALID,0,VALID,94.2254,VALID,0.107441,VALID,20.3253,VALID,140,VALID,0.359766,
2010-06-24, 02:28:04,VALID,916.492,VALID,0,VALID,94.3017,VALID,0.107441,VALID,20.2848,VALID,140,VALID,0.562891,
2010-06-24, 02:29:04,VALID,916.466,VALID,0,VALID,94.5151,VALID,0,VALID,20.2863,VALID,140,VALID,0.984766,
2010-06-24, 02:30:04,VALID,916.459,VALID,0,VALID,94.6523,VALID,0,VALID,20.2863,VALID,140,VALID,0.99375,
2010-06-24, 02:31:04,VALID,916.411,VALID,0,VALID,94.7514,VALID,0,VALID,20.2668,VALID,140,VALID,1.09766,
2010-06-24, 02:32:04,VALID,916.433,VALID,0,VALID,94.9039,VALID,0.107441,VALID,20.2458,VALID,140,VALID,1.08477,
2010-06-24, 02:33:04,VALID,916.408,VALID,0,VALID,95.0183,VALID,0.107441,VALID,20.2473,VALID,140,VALID,0.955469,
2010-06-24, 02:34:04,VALID,916.401,VALID,0,VALID,95.1174,VALID,0,VALID,20.2278,VALID,140,VALID,0.713281,
2010-06-24, 02:35:04,VALID,916.378,VALID,0,VALID,95.2088,VALID,0.107441,VALID,20.2278,VALID,140,VALID,0.703125,
2010-06-24, 02:36:04,VALID,916.395,VALID,0,VALID,95.247,VALID,0,VALID,20.2278,VALID,140,VALID,0.490625,
2010-06-24, 02:37:04,VALID,916.364,VALID,0,VALID,95.2775,VALID,0,VALID,20.2083,VALID,140,VALID,0.672266,
2010-06-24, 02:38:04,VALID,916.346,VALID,0,VALID,95.2165,VALID,0,VALID,20.2278,VALID,140,VALID,1.2418,
2010-06-24, 02:39:04,VALID,916.309,VALID,0,VALID,95.1097,VALID,0,VALID,20.2473,VALID,140,VALID,0.779688,
2010-06-24, 02:40:04,VALID,916.298,VALID,0,VALID,95.0183,VALID,0,VALID,20.2668,VALID,140,VALID,0.457812,
2010-06-24, 02:41:04,VALID,916.273,VALID,0,VALID,94.9268,VALID,0,VALID,20.2863,VALID,140,VALID,0.800391,
2010-06-24, 02:42:04,VALID,916.268,VALID,0,VALID,94.8353,VALID,0,VALID,20.3058,VALID,140,VALID,0.437891,
2010-06-24, 02:43:04,VALID,916.23,VALID,0,VALID,94.7362,VALID,0,VALID,20.3448,VALID,140,VALID,0.0902344,
2010-06-24, 02:44:04,VALID,916.252,VALID,0,VALID,94.5913,VALID,0,VALID,20.3643,VALID,190,VALID,0.528906,
2010-06-24, 02:45:04,VALID,916.22,VALID,0,VALID,94.4541,VALID,0,VALID,20.3838,VALID,190,VALID,0.457422,
2010-06-24, 02:46:04,VALID,916.212,VALID,0,VALID,94.3245,VALID,0,VALID,20.4228,VALID,190,VALID,0.301562,
2010-06-24, 02:47:04,VALID,916.198,VALID,0,VALID,94.1568,VALID,0,VALID,20.4423,VALID,190,VALID,0.928516,
2010-06-24, 02:48:04,VALID,916.2,VALID,0,VALID,94.0653,VALID,0,VALID,20.4423,VALID,160,VALID,0.689062,
2010-06-24, 02:49:04,VALID,916.185,VALID,0,VALID,93.9891,VALID,0,VALID,20.4228,VALID,161,VALID,1.15391,
2010-06-24, 02:50:04,VALID,916.158,VALID,0,VALID,94.0425,VALID,0,VALID,20.4423,VALID,97,VALID,0.397266,
2010-06-24, 02:51:04,VALID,916.147,VALID,0,VALID,93.7985,VALID,0,VALID,20.4423,VALID,150,VALID,1.20352,
2010-06-24, 02:52:04,VALID,916.128,VALID,0,VALID,93.7451,VALID,0.107441,VALID,20.4423,VALID,140,VALID,0.428906,
2010-06-24, 02:53:04,VALID,916.091,VALID,0,VALID,93.5622,VALID,0,VALID,20.4618,VALID,100,VALID,0.529688,
2010-06-24, 02:54:04,VALID,916.044,VALID,0,VALID,93.5012,VALID,0,VALID,20.4603,VALID,100,VALID,0.286719,
2010-06-24, 02:55:04,VALID,916.033,VALID,0,VALID,93.425,VALID,0,VALID,20.5009,VALID,101,VALID,0.280469,
2010-06-24, 02:56:04,VALID,916.013,VALID,0,VALID,93.2649,VALID,0.107441,VALID,20.5009,VALID,101,VALID,0.672656,
2010-06-24, 02:57:04,VALID,916.006,VALID,0,VALID,93.1886,VALID,0,VALID,20.5009,VALID,101,VALID,0.184375,
2010-06-24, 02:58:04,VALID,916.023,VALID,0,VALID,93.1963,VALID,0.107441,VALID,20.4993,VALID,101,VALID,0.4125,
2010-06-24, 02:59:04,VALID,916,VALID,0,VALID,93.181,VALID,0.107441,VALID,20.5188,VALID,101,VALID,0.280078,
2010-06-24, 03:00:04,VALID,916,VALID,0,VALID,92.8761,VALID,0,VALID,20.5204,VALID,101,VALID,0.56875,
2010-06-24, 03:01:04,VALID,915.978,VALID,0,VALID,92.7007,VALID,0,VALID,20.5009,VALID,101,VALID,0.380469,
2010-06-24, 03:02:04,VALID,915.954,VALID,0,VALID,92.5025,VALID,0,VALID,20.5009,VALID,101,VALID,0.488672,
2010-06-24, 03:03:04,VALID,915.955,VALID,0,VALID,92.4187,VALID,0,VALID,20.4813,VALID,101,VALID,0.593359,
2010-06-24, 03:04:04,VALID,915.946,VALID,0,VALID,92.3729,VALID,0,VALID,20.4423,VALID,101,VALID,0.526563,
2010-06-24, 03:05:04,VALID,915.907,VALID,0,VALID,92.4263,VALID,0,VALID,20.4228,VALID,101,VALID,0.538672,
2010-06-24, 03:06:04,VALID,915.926,VALID,0,VALID,92.4797,VALID,0,VALID,20.4228,VALID,101,VALID,0.701172,
2010-06-24, 03:07:04,VALID,915.913,VALID,0,VALID,92.5406,VALID,0,VALID,20.4033,VALID,101,VALID,0.832031,
2010-06-24, 03:08:04,VALID,915.916,VALID,0,VALID,92.5711,VALID,0,VALID,20.4033,VALID,101,VALID,0.629687,
2010-06-24, 03:09:04,VALID,915.902,VALID,0,VALID,92.6093,VALID,0,VALID,20.3838,VALID,101,VALID,0.502344,
2010-06-24, 03:10:04,VALID,915.92,VALID,0,VALID,92.7922,VALID,0,VALID,20.3854,VALID,101,VALID,0.637109,
2010-06-24, 03:11:04,VALID,915.921,VALID,0,VALID,92.9752,VALID,0,VALID,20.3253,VALID,101,VALID,0.662891,
2010-06-24, 03:12:04,VALID,915.972,VALID,0,VALID,93.2572,VALID,0,VALID,20.2863,VALID,101,VALID,0.807422,
2010-06-24, 03:13:04,VALID,915.987,VALID,0,VALID,93.5164,VALID,0,VALID,20.2263,VALID,101,VALID,1.06094,
2010-06-24, 03:14:04,VALID,915.955,VALID,0,VALID,93.7451,VALID,0.107441,VALID,20.2083,VALID,101,VALID,0.725391,
2010-06-24, 03:15:04,VALID,915.981,VALID,0,VALID,93.9586,VALID,0,VALID,20.1693,VALID,101,VALID,0.812891,
2010-06-24, 03:16:04,VALID,915.955,VALID,0,VALID,94.2559,VALID,0,VALID,20.1303,VALID,101,VALID,1.19961,
2010-06-24, 03:17:04,VALID,915.962,VALID,0,VALID,94.4617,VALID,0,VALID,20.1108,VALID,123,VALID,0.992578,
2010-06-24, 03:18:04,VALID,915.951,VALID,0,VALID,94.6142,VALID,0,VALID,20.1108,VALID,123,VALID,1.03984,
2010-06-24, 03:19:04,VALID,915.897,VALID,0,VALID,94.7057,VALID,0,VALID,20.0508,VALID,123,VALID,0.658203,
2010-06-24, 03:20:04,VALID,915.902,VALID,0,VALID,94.881,VALID,0.107441,VALID,20.0913,VALID,123,VALID,0.949609,
2010-06-24, 03:21:04,VALID,915.853,VALID,0,VALID,95.0106,VALID,0,VALID,20.1108,VALID,123,VALID,0.800391,
2010-06-24, 03:22:04,VALID,915.818,VALID,0,VALID,95.0488,VALID,0,VALID,20.0913,VALID,123,VALID,0.923437,
2010-06-24, 03:23:04,VALID,915.832,VALID,0,VALID,94.9344,VALID,0,VALID,20.0913,VALID,123,VALID,0.674609,
2010-06-24, 03:24:04,VALID,915.81,VALID,0,VALID,95.0259,VALID,0,VALID,20.1108,VALID,123,VALID,1.05586,
2010-06-24, 03:25:04,VALID,915.825,VALID,0,VALID,94.9878,VALID,0,VALID,20.1108,VALID,123,VALID,0.535156,
2010-06-24, 03:26:04,VALID,915.794,VALID,0,VALID,94.9878,VALID,0,VALID,20.0913,VALID,123,VALID,0.766797,
2010-06-24, 03:27:04,VALID,915.761,VALID,0,VALID,95.1021,VALID,0,VALID,20.0913,VALID,123,VALID,0.998047,
2010-06-24, 03:28:04,VALID,915.769,VALID,0,VALID,95.0488,VALID,0,VALID,20.0913,VALID,123,VALID,1.1082,
2010-06-24, 03:29:04,VALID,915.762,VALID,0,VALID,94.9573,VALID,0,VALID,20.1108,VALID,123,VALID,1.06719,
2010-06-24, 03:30:04,VALID,915.722,VALID,0,VALID,94.881,VALID,0,VALID,20.0913,VALID,124,VALID,0.609766,
2010-06-24, 03:31:04,VALID,915.735,VALID,0,VALID,94.8734,VALID,0,VALID,20.0913,VALID,141,VALID,0.817187,
2010-06-24, 03:32:04,VALID,915.693,VALID,0,VALID,94.7514,VALID,0,VALID,20.0913,VALID,141,VALID,0.65,
2010-06-24, 03:33:04,VALID,915.683,VALID,0,VALID,94.6752,VALID,0,VALID,20.0913,VALID,141,VALID,1.32695,
2010-06-24, 03:34:04,VALID,915.655,VALID,0,VALID,94.6218,VALID,0,VALID,20.0718,VALID,141,VALID,0.764063,
2010-06-24, 03:35:04,VALID,915.656,VALID,0,VALID,94.6905,VALID,0,VALID,20.0718,VALID,141,VALID,0.833203,
2010-06-24, 03:36:04,VALID,915.659,VALID,0,VALID,94.6981,VALID,0,VALID,20.0523,VALID,141,VALID,0.811719,
2010-06-24, 03:37:04,VALID,915.644,VALID,0,VALID,94.7362,VALID,0,VALID,20.0328,VALID,141,VALID,0.511328,
2010-06-24, 03:38:04,VALID,915.613,VALID,0,VALID,94.9192,VALID,0.107441,VALID,20.0523,VALID,141,VALID,0.972266,
2010-06-24, 03:39:04,VALID,915.587,VALID,0,VALID,95.0564,VALID,0,VALID,20.0328,VALID,141,VALID,0.632422,
2010-06-24, 03:40:04,VALID,915.591,VALID,0,VALID,95.1555,VALID,0,VALID,20.0328,VALID,141,VALID,0.866406,
2010-06-24, 03:41:04,VALID,915.585,VALID,0,VALID,95.1631,VALID,0,VALID,20.0523,VALID,141,VALID,0.505078,
2010-06-24, 03:42:04,VALID,915.564,VALID,0,VALID,95.2241,VALID,0,VALID,20.0523,VALID,141,VALID,0.762891,
2010-06-24, 03:43:04,VALID,915.552,VALID,0,VALID,95.1783,VALID,0,VALID,20.0718,VALID,141,VALID,0.417578,